This is the latest recevied weather packets stored in our database for station/object N7SWJ. If no packets are shown the sender has not sent any weather packets the latest 10 day(s).
| Time | Temp. | Humidity | Pressure | Rain* | Wind** | Luminosity | Snow |
|---|---|---|---|---|---|---|---|
| 1778086391 | 2.78° C | 82% | 1022.9 hPa | 4.83 mm | - | 384 W/m² | - |
| 1778086082 | 2.78° C | 82% | 1022.8 hPa | 3.05 mm | - | 316 W/m² | - |
| 1778085779 | 2.78° C | 82% | 1022.8 hPa | 3.05 mm | - | 193 W/m² | - |
| 1778085476 | 2.78° C | 82% | 1022.7 hPa | 3.05 mm | - | 270 W/m² | - |
| 1778085171 | 2.78° C | 83% | 1022.3 hPa | 3.05 mm | - | 261 W/m² | - |
| 1778084866 | 2.22° C | 85% | 1022.3 hPa | 3.05 mm | - | 215 W/m² | - |
| 1778084564 | 2.22° C | 86% | 1022.4 hPa | 1.27 mm | - | 186 W/m² | - |
| 1778084256 | 2.22° C | 86% | 1022.6 hPa | 1.78 mm | - | 199 W/m² | - |
| 1778083953 | 2.22° C | 88% | 1022.8 hPa | 3.05 mm | - | 241 W/m² | - |
| 1778083651 | 2.22° C | 91% | 1022.6 hPa | 1.27 mm | - | 208 W/m² | - |
| 1778083347 | 2.22° C | 93% | 1022.4 hPa | 1.78 mm | - | 268 W/m² | - |
| 1778083046 | 1.67° C | 94% | 1022.4 hPa | 1.78 mm | - | 202 W/m² | - |
| 1778082742 | 1.67° C | 95% | 1022.6 hPa | 1.27 mm | - | 188 W/m² | - |
| 1778081609 | 1.11° C | 96% | 1022.4 hPa | 1.27 mm | - | 155 W/m² | - |
| 1778081306 | 1.11° C | 96% | 1022.3 hPa | 1.27 mm | - | 127 W/m² | - |
| 1778081004 | 1.11° C | 96% | 1022.3 hPa | 1.78 mm | - | 138 W/m² | - |
| 1778080702 | 1.11° C | 96% | 1022.1 hPa | 1.78 mm | - | 134 W/m² | - |
| 1778080398 | 1.11° C | 96% | 1022.2 hPa | 0 mm | - | 134 W/m² | - |
| 1778080095 | 0.56° C | 96% | 1022.2 hPa | 1.78 mm | - | 122 W/m² | - |
| 1778079792 | 0.56° C | 96% | 1022.1 hPa | 1.78 mm | - | 118 W/m² | - |
| 1778079489 | 0.56° C | 96% | 1022.1 hPa | 0 mm | - | 106 W/m² | - |
| 1778079186 | 0.56° C | 96% | 1022.1 hPa | 1.27 mm | - | 100 W/m² | - |
| 1778078883 | 0.56° C | 96% | 1021.9 hPa | 1.27 mm | - | 87 W/m² | - |
| 1778078580 | 0.56° C | 97% | 1022.1 hPa | 0 mm | - | 81 W/m² | - |
| 1778078278 | 0.56° C | 97% | 1021.9 hPa | 0 mm | - | 77 W/m² | - |
* Rain latest hour (hover to see other rain measurements)
** Current wind speed in m/s (hover to see current wind gust speed)